Location: Endfield
(51.6667°N, 0.0667°W)
Time: 02:24:38
(UTC+00:00)

Cosmos 1626 - Pass Details

Date: 19 May 2024
Orbit: 402 x 407 km, 82.5° (Epoch: 17 June)

Event Time Altitude Azimuth Distance (km) Brightness Sun altitude
Exits shadow 23:07:01 46° 126° (SE) 572 2.0 -17.5°
Maximum altitude 23:07:27 51° 96° (E) 541 2.1 -17.5°
Drops below altitude 10° 23:10:39 10° 20° (NNE) 1,512 5.4 -17.6°
Sets 23:12:43 0° 15° (NNE) 2,380 6.7 -17.7°
